Location: Unspecified
(0.0000°N, 0.0000°E)
Time: 15:10:45
(UTC+00:00)

STARLINK-1679 - Pass Details

Date: 15 November 2025
Orbit: 449 x 465 km, 53.1° (Epoch: 11 December)

Event Time Altitude Azimuth Distance (km) Brightness Sun altitude
Exits shadow 03:27:17 - 55° (NE) 2,146 7.0 -32.3°
Enters shadow 04:27:45 -68° 316° (NW) 12,269 10.4 -18.2°
Maximum altitude 05:04:48 70° 236° (SW) 506 3.3 -9.4°
